Regional Weather Roundup
Issued by NWS Jackson, KY

Home | Current Version | Previous Version | Graphics & Text | Print | Product List | Glossary Off
Versions: 1 2 3 4 5 6 7 8 9 10 11 12 13 14 15 16 17 18 19 20 21 22 23 24 25 26 27 28

000
ASUS43 KJKL 050110
RWRJKL

EAST KENTUCKY HOURLY WEATHER ROUNDUP
NATIONAL WEATHER SERVICE JACKSON KY
800 PM EST SUN DEC 04 2016

NOTE: "FAIR" INDICATES FEW OR NO CLOUDS BELOW 12,000 FEET WITH
NO SIGNIFICANT WEATHER AND/OR OBSTRUCTIONS TO VISIBILITY.

* THESE REPORTS ARE NOT UNDER NWS QUALITY CONTROL AND MAY NOT
  REPORT WEATHER SUCH AS PRECIPITATION AND FOG.

KYZ079-080-083-085-087-088-110-112-115-119-120-050200
...EASTERN KENTUCKY...

CITY           SKY/WX    TMP DP  RH WIND       PRES   REMARKS
JACKSON        LGT RAIN  43  41  93 SW3       29.92R VSB 1/2
LONDON         LGT RAIN  46  43  89 SW6       29.95R FOG
SOMERSET*      DRIZZLE   45  45 100 SW6       29.98R
MONTICELLO*    LGT RAIN  47  46  97 W15       29.99R FOG
WILLIAMSBURG*  CLOUDY    45  45 100 CALM      29.96R VSB 3/4
MIDDLESBORO*   DRIZZLE   46  45  97 CALM      29.99R
HARLAN APT*    CLOUDY    45  43  93 CALM      29.96R
PIKE CO APT*   DRIZZLE   45  45 100 S6        29.91S
MOREHEAD APT*  CLOUDY    41  39  93 S3        29.93S FOG
ASHLAND*       CLOUDY    43  39  87 CALM      29.89F
$$

KYZ035-036-041-042-044-050-067-078-099-050200
...CENTRAL KENTUCKY...

CITY           SKY/WX    TMP DP  RH WIND       PRES   REMARKS
MT STERLING*   CLOUDY    43  43 100 SW7       29.93R FOG
FLEMING/MASON* CLOUDY    40  39  99 S6        29.92S FOG
DANVILLE*      RAIN      45  45 100 SW7       29.94S
LEXINGTON      LGT RAIN  45  43  93 SW10      29.91S FOG
FRANKFORT      LGT RAIN  46  43  89 SW10      29.90S
LOUISVILLE     CLOUDY    47  43  86 W12       29.93R
LEBANON*       CLOUDY    46  46 100 S8        29.94R
GLASGOW*       DRIZZLE  N/A N/A N/A W7        29.98R
BOWLING GREEN  CLOUDY    47  44  90 SW6       29.98S
$$

KYZ091>093-OHZ055-061-077-WVZ005-015-034-035-042-050200
...SOUTHERN OHIO/WEST VIRGINIA...

CITY           SKY/WX    TMP DP  RH WIND       PRES   REMARKS
COVINGTON      LGT RAIN  42  41  96 S8        29.87F FOG
COLUMBUS       RAIN      37  37 100 SE6       29.90F FOG     WCI  32
DAYTON         LGT RAIN  36  35  96 SE9       29.87F FOG     WCI  29
WILMINGTON     LGT RAIN  37  37 100 SE7       29.87F FOG     WCI  32
HUNTINGTON     LGT RAIN  42  40  92 CALM      29.90F FOG
CHARLESTON     LGT RAIN  46  40  79 S3        29.91S
PINEVILLE*     DRIZZLE   43  40  87 MISG      29.99F
BECKLEY        CLOUDY    37  35  92 SE12G18   29.95F FOG     WCI  29
BLUEFIELD      CLOUDY    38  35  89 SE6       29.96F WCI  33
$$

VAZ002-007-008-TNZ017-027-036-066-071-050200
...SOUTHWEST VIRGINIA/EAST TENNESSEE...

CITY           SKY/WX    TMP DP  RH WIND       PRES   REMARKS
WISE*          CLOUDY    43  43 100 S8        29.95S
JONESVILLE*    CLOUDY    45  45 100 CALM      30.00R FOG
ABINGDON*      CLOUDY    45  44  97 E9        29.98R
BRISTOL        LGT RAIN  46  43  89 CALM      29.97S
MORRISTOWN*    CLOUDY    45  45 100 CALM      29.95F
SEVIERVILLE*   CLOUDY    43  43 100 CALM      29.98S
KNOXVILLE      LGT RAIN  44  43  96 CALM      29.97S FOG
OAK RIDGE      CLOUDY    45  43  93 S3        30.00R
CROSSVILLE     CLOUDY    46  44  93 VRB6      29.98R FOG
NASHVILLE      LGT RAIN  48  46  93 CALM      30.00R FOG
$$

...KEY TO REMARKS...
VSB - VISIBILITY IN MILES
WCI - WIND CHILL INDEX
HX  - HEAT INDEX

$$




USA.gov is the U.S. government's official web portal to all federal, state and local government web resources and services.